User: anonymous   Login
Location: Lecco
(45.8566°N, 9.3977°E)
Time: 12:36:53
(UTC+02:00)
Language:

Tiros 1 - Orbit

View from above orbital plane
View from above orbital plane
View from above satellite
View from above satellite

Ground track
Ground track

The orbit data is extracted from the following two-line orbital elements,

1    29U 60002B   20219.95595688 -.00000147  00000-0  92565-5 0  9993
2    29  48.3800  70.2800 0023652  88.3890 271.9731 14.74365591226114
Epoch (UTC): 06 August 2020 22:56:34
Eccentricity: 0.0023652
inclination: 48.3800°
perigee height: 630 km
apogee height: 664 km
right ascension of ascending node: 70.2800°
argument of perigee: 88.3890°
revolutions per day: 14.74365591
mean anomaly at epoch: 271.9731°
orbit number at epoch: 22611

The dashed part of the orbit path shows where the satellite is in the earth's shadow,  

DLR